sat.trackr.live / text

‹ back to catalog

STARLINK-34751

NORAD 65338 · 2025-189R

PAYLOAD ACTIVE UNKNOWN

§ Identity

Operator
Country
US
Launch date
2025-08-27
Launch site
AFETR
Launch vehicle
Mass (kg)
RCS (m²)

Purposes: comms

External: N2YO · Heavens-Above · Gunter

§ Orbital elements

Epoch: 2026-09-20T13:31:39.201024Z

Period
94.01 min
Inclination
53.1595°
Eccentricity
0.0000967
Mean motion
15.31694410 rev/d
Perigee alt
470.1 km
Apogee alt
471.4 km
Semi-major
6,848.9 km
B*
7.2421e-4
RAAN
20.0980°
Arg perigee
97.3557°
Mean anomaly
262.7554°
Rev number
6,096

§ Raw data

STARLINK-347511 65338U 25189R   26263.56364816  .00022171  00000+0  72421-3 0  99992 65338  53.1595  20.0980 0000967  97.3557 262.7554 15.31694410 60968

JSON: /api/v1/satellites/65338 · /tle

For live sub-satellite position, see the globe view (requires WebGL).

§ Visibility from observer

Set your observer location to see the next 7 days of passes ≥ 10°. The values pass through the URL so the page stays shareable.

No JS? Fill the form by hand. The geolocation button needs JavaScript.